Location: Melizzano
(41.1500°N, 14.5000°E)
Time: 19:29:43
(UTC+00:00)

Cosmos 1340 Rocket - Pass Details

Date: 11 May 2021
Orbit: 527 x 559 km, 81.2° (Epoch: 21 June)

Event Time Altitude Azimuth Distance (km) Brightness Sun altitude
Rises 20:51:14 0° 359° (N) 2,755 7.3 -23.8°
Reaches altitude 10° 20:53:34 10° 9° (N) 1,854 6.1 -24.1°
Enters shadow 20:56:27 31° 48° (NE) 1,002 4.2 -24.3°
